Home > Weather > New Bedford > Past weeks

Flag for USA Weather for the Past 2 Weeks in New Bedford, Massachusetts, USA

Now
46 °F

Mostly cloudy.


Feels Like: 42 °F
Forecast: 45 / 56 °F
Wind: 7 mph from North

Location: New Bedford Regional Airport

Current Time: May 6, 2016 at 3:39:47 AM

Latest Report: May 6, 2016 at 2:53 AM


Visibility: 10 mi

Pressure: 29.65 "Hg

Humidity: 89%

Dew Point: 43 °F

Location of New BedfordLocation

Historic Weather in New Bedford — Graph

°F

New Bedford Temperature Yesterday

Maximum temperature yesterday: 46 °F (at 9:53 AM)
Minimum temperature yesterday: 44 °F (at 3:53 AM)
Average temperature yesterday: 45 °F

High & Low Weather Summary for the Past Weeks

 TemperatureHumidityPressure
High75 °F (Apr 22, 11:53 AM)100% (Apr 23, 7:00 AM)30.27 "Hg (Apr 23, 7:00 AM)
Low33 °F (Apr 27, 5:53 AM)19% (Apr 24, 1:53 PM)29.59 "Hg (May 5, 8:53 PM)
Average49 °F73%29.95 "Hg
* Reported Apr 21 1:53 AM — May 6 1:53 AM, New Bedford, Weather by CustomWeather, © 2016

Note: Actual official high and low records may vary slightly from our data, if they occured in-between our weather recording intervals... More about our weather records

Advertising

New Bedford Weather History for the Previous 24 Hours

Scroll right to see more
 ConditionsComfort  
Time TempWeatherWind HumidityBarometerVisibility
1:53 AM
Fri, May 6
45 °FLow clouds.8 mph93%29.62 "Hg10 mi
12:53 AM45 °FMostly cloudy.13 mph93%29.63 "Hg8 mi
11:53 PM
Thu, May 5
45 °FLight rain. Fog.14 mph93%29.65 "Hg5 mi
10:53 PM45 °FLight rain. Fog.10 mph93%29.67 "Hg6 mi
9:53 PM45 °FLight rain. Overcast.8 mph90%29.65 "Hg10 mi
8:53 PM44 °FLight rain. Overcast.26 mph89%29.59 "Hg10 mi
7:53 PM44 °FLight rain. Overcast.17 mph89%29.61 "Hg10 mi
6:53 PM44 °FLight rain. Mostly cloudy.16 mph93%29.64 "Hg9 mi
5:53 PM44 °FLight rain. Overcast.16 mph89%29.65 "Hg10 mi
4:53 PM44 °FLight rain. Overcast.18 mph89%29.65 "Hg10 mi
3:53 PM44 °FRain. Fog.18 mph89%29.67 "Hg6 mi
2:53 PM45 °FRain. Overcast.15 mph90%29.67 "Hg7 mi
1:53 PM45 °FLight rain. Fog.14 mph90%29.68 "Hg4 mi
12:53 PM45 °FLow clouds.23 mph90%29.69 "Hg10 mi
11:53 AM46 °FLow clouds.22 mph89%29.71 "Hg10 mi
10:53 AM46 °FLow clouds.17 mph86%29.71 "Hg10 mi
9:53 AM46 °FLow clouds.16 mph89%29.70 "Hg10 mi
8:53 AM45 °FLow clouds.16 mph93%29.70 "Hg9 mi
7:53 AM45 °FLow clouds.15 mph93%29.71 "Hg9 mi
6:53 AM45 °FLow clouds.13 mph93%29.68 "Hg10 mi
5:53 AM45 °FMostly cloudy.13 mph90%29.68 "Hg10 mi
4:53 AM45 °FLow clouds.9 mph90%29.68 "Hg8 mi
3:53 AM44 °FFog.9 mph93%29.68 "Hg5 mi
Weather by CustomWeather, © 2016

See weather overviewHow to use our weather pages